Date String (YYYY-MM-DD hh:mm:ss) UTC,Instrument flags,Ambient pressure (hPa),Sample flow (lpm),Bypass flow (lpm),Sample temperature (°C),Ambient temperature (°C),ASC tube jacket temperature (°C),LED temperature (°C),Box temperature (°C),Sample RH (%),Span deviation,Mass concentration (μg/m³),Mass concentration (μg/m³),Mass concentration (μg/m³)
DateTimeUTC,F1_M11,P_M11,Q1_M11,Q2_M11,T1_M11,T2_M11,T3_M11,T4_M11,T5_M11,U1_M11,ZSPAN_M11,X2_M11,X0_M11,X1_M11
2023-05-26 19:00:00,,0830.0,5.00,0.00,29.5,28.0,00.0,37.8,31.2,27.4,0001.4,0008.52,0013.89,0007.82
2023-05-26 19:01:00,,0830.0,5.01,0.00,29.6,28.1,00.0,37.8,31.3,27.4,0001.7,0008.31,0013.71,0007.61
2023-05-26 19:02:00,,0829.9,5.00,0.00,29.6,28.2,00.0,37.9,31.3,28.6,0001.9,0008.14,0013.37,0007.48
2023-05-26 19:03:00,,0829.9,5.00,0.00,29.6,28.3,00.0,37.9,31.3,28.5,0001.9,0008.13,0013.34,0007.49
2023-05-26 19:04:00,,0829.8,5.00,0.00,29.6,28.3,00.0,37.9,31.3,29.3,0002.0,0008.22,0013.20,0007.58
2023-05-26 19:05:00,,0829.9,5.01,0.00,29.7,28.4,00.0,37.9,31.4,29.4,0002.1,0008.30,0012.98,0007.66
2023-05-26 19:06:00,,0829.9,5.00,0.00,29.7,28.4,00.0,37.9,31.4,29.9,0002.4,0008.38,0013.25,0007.72
2023-05-26 19:07:00,,0829.9,4.99,0.00,29.7,28.1,00.0,37.9,31.4,30.2,0002.5,0008.50,0013.96,0007.81
2023-05-26 19:08:00,,0830.0,4.99,0.00,29.7,26.6,00.0,37.9,31.2,30.7,0002.2,0008.69,0013.88,0008.02
2023-05-26 19:09:00,,0830.0,5.02,0.00,29.6,25.9,00.0,37.8,31.1,30.5,0001.9,0009.02,0014.06,0008.31
2023-05-26 19:10:00,,0830.0,5.00,0.00,29.6,26.0,00.0,37.8,30.9,30.8,0001.7,0009.23,0014.17,0008.55
2023-05-26 19:11:00,,0830.0,4.99,0.00,29.5,26.2,00.0,37.8,30.9,31.3,0001.8,0009.48,0014.47,0008.78
2023-05-26 19:12:00,,0830.0,5.01,0.00,29.5,26.6,00.0,37.8,31.0,30.7,0001.7,0009.73,0015.19,0009.06
2023-05-26 19:13:00,,0830.1,5.00,0.00,29.5,26.9,00.0,37.8,31.0,31.0,0001.6,0010.06,0015.90,0009.33
2023-05-26 19:14:00,,0830.1,5.01,0.00,29.5,27.1,00.0,37.8,31.1,31.2,0001.5,0010.30,0016.18,0009.54
2023-05-26 19:15:00,,0830.2,5.00,0.00,29.5,27.4,00.0,37.8,31.1,31.0,0001.4,0010.43,0016.32,0009.69
2023-05-26 19:16:00,,0830.3,5.01,0.00,29.5,27.6,00.0,37.8,31.1,30.5,0001.3,0010.53,0016.45,0009.77
2023-05-26 19:17:00,,0830.3,5.00,0.00,29.5,27.7,00.0,37.8,31.2,30.7,0001.0,0010.62,0016.64,0009.87
2023-05-26 19:18:00,,0830.2,5.00,0.00,29.5,27.9,00.0,37.8,31.2,31.2,0000.9,0010.66,0016.71,0009.94
2023-05-26 19:19:00,,0830.2,5.00,0.00,29.5,28.0,00.0,37.8,31.2,31.0,0000.8,0010.71,0016.87,0009.98
2023-05-26 19:20:00,,0830.2,5.00,0.00,29.6,28.1,00.0,37.9,31.3,30.6,0000.8,0010.77,0016.93,0010.03
2023-05-26 19:21:00,,0830.2,5.00,0.00,29.6,28.2,00.0,37.9,31.3,30.5,0000.9,0010.80,0016.98,0010.05
2023-05-26 19:22:00,,0830.1,5.00,0.00,29.6,28.2,00.0,37.9,31.3,30.5,0001.0,0010.83,0017.01,0010.07
2023-05-26 19:23:00,,0830.2,4.99,0.00,29.6,28.3,00.0,37.9,31.3,30.6,0001.1,0010.82,0016.19,0010.06
2023-05-26 19:24:00,,0830.3,5.00,0.00,29.7,28.3,00.0,37.9,31.4,30.3,0001.2,0010.82,0016.36,0010.07
2023-05-26 19:25:00,,0830.2,5.00,0.00,29.7,28.4,00.0,37.9,31.4,30.3,0001.2,0010.77,0016.60,0010.04
2023-05-26 19:26:00,,0830.3,4.99,0.00,29.7,28.3,00.0,37.9,31.4,30.5,0001.1,0010.75,0016.57,0010.01
2023-05-26 19:27:00,,0830.3,5.00,0.00,29.7,26.9,00.0,37.9,31.2,30.7,0001.1,0010.70,0016.49,0009.96
2023-05-26 19:28:00,,0830.3,5.01,0.00,29.6,25.9,00.0,37.8,31.1,30.9,0001.2,0010.62,0016.41,0009.89
2023-05-26 19:29:00,,0830.4,5.02,0.00,29.6,25.8,00.0,37.8,30.9,31.0,0001.1,0010.64,0016.24,0009.87
2023-05-26 19:30:00,,0830.4,5.00,0.00,29.5,26.1,00.0,37.8,30.9,31.4,0001.2,0010.66,0017.11,0009.87
2023-05-26 19:31:00,,0830.5,5.00,0.00,29.4,26.4,00.0,37.8,30.9,31.5,0001.1,0010.55,0018.00,0009.81
2023-05-26 19:32:00,,0830.5,5.01,0.00,29.4,26.7,00.0,37.8,31.0,31.2,0001.1,0010.51,0018.61,0009.78
2023-05-26 19:33:00,,0830.4,5.00,0.00,29.4,27.0,00.0,37.8,31.0,31.1,0001.1,0010.51,0018.61,0009.75
2023-05-26 19:34:00,,0830.3,5.00,0.00,29.4,27.3,00.0,37.8,31.1,31.0,0001.0,0010.53,0018.93,0009.78
2023-05-26 19:35:00,,0830.3,5.00,0.00,29.4,27.5,00.0,37.8,31.1,30.8,0000.8,0010.52,0018.78,0009.78
2023-05-26 19:36:00,,0830.3,5.00,0.00,29.5,27.7,00.0,37.8,31.2,30.6,0000.6,0010.45,0018.62,0009.70
2023-05-26 19:37:00,,0830.2,5.01,0.00,29.5,27.8,00.0,37.8,31.2,29.8,0000.5,0010.28,0018.60,0009.50
2023-05-26 19:38:00,,0830.2,5.00,0.00,29.5,28.0,00.0,37.8,31.2,28.5,0000.6,0009.93,0018.29,0009.15
2023-05-26 19:39:00,,0830.3,5.00,0.00,29.5,28.1,00.0,37.8,31.2,28.0,0000.7,0009.51,0017.95,0008.73
2023-05-26 19:40:00,,0830.3,5.00,0.00,29.6,28.1,00.0,37.9,31.3,27.5,0000.9,0009.03,0017.29,0008.25
2023-05-26 19:41:00,,0830.2,5.00,0.00,29.6,28.2,00.0,37.9,31.3,27.3,0001.0,0008.50,0016.16,0007.77
2023-05-26 19:42:00,,0830.3,5.01,0.00,29.6,28.3,00.0,37.9,31.3,27.2,0001.0,0008.05,0014.59,0007.33
2023-05-26 19:43:00,,0830.3,5.00,0.00,29.6,28.2,00.0,37.9,31.3,27.4,0001.2,0007.70,0013.42,0006.94
2023-05-26 19:44:00,,0830.2,4.99,0.00,29.6,26.9,00.0,37.8,31.2,27.6,0001.2,0007.36,0013.62,0006.59
2023-05-26 19:45:00,,0830.2,5.00,0.00,29.6,25.8,00.0,37.8,31.0,28.0,0001.1,0007.04,0013.46,0006.25
2023-05-26 19:46:00,,0830.2,5.01,0.00,29.5,25.7,00.0,37.7,30.9,28.2,0001.5,0006.71,0013.18,0005.93
2023-05-26 19:47:00,,0830.3,5.00,0.00,29.4,25.9,00.0,37.7,30.8,28.5,0001.8,0006.35,0012.24,0005.60
2023-05-26 19:48:00,,0830.2,4.99,0.00,29.4,26.2,00.0,37.7,30.9,28.7,0002.4,0006.07,0011.79,0005.37
2023-05-26 19:49:00,,0830.3,5.00,0.00,29.4,26.6,00.0,37.7,30.9,28.2,0002.1,0006.00,0011.59,0005.34
2023-05-26 19:50:00,,0830.3,5.00,0.00,29.4,26.9,00.0,37.7,31.0,28.0,0002.1,0006.01,0011.44,0005.37
2023-05-26 19:51:00,,0830.3,4.99,0.00,29.4,27.1,00.0,37.7,31.0,28.4,0002.4,0006.05,0011.38,0005.40
2023-05-26 19:52:00,,0830.4,5.00,0.00,29.4,27.4,00.0,37.7,31.1,28.4,0002.2,0006.09,0011.28,0005.42
2023-05-26 19:53:00,,0830.4,5.00,0.00,29.4,27.6,00.0,37.7,31.1,28.6,0002.3,0006.13,0011.62,0005.45
2023-05-26 19:54:00,,0830.4,5.00,0.00,29.4,27.7,00.0,37.7,31.1,28.7,0002.2,0006.09,0011.87,0005.44
2023-05-26 19:55:00,,0830.4,5.01,0.00,29.4,27.9,00.0,37.7,31.2,28.7,0002.1,0005.99,0011.89,0005.36
2023-05-26 19:56:00,,0830.6,5.01,0.00,29.5,28.0,00.0,37.8,31.2,28.5,0002.1,0005.91,0011.47,0005.30
2023-05-26 19:57:00,,0830.6,5.00,0.00,29.5,28.1,00.0,37.8,31.2,28.4,0002.1,0005.82,0011.13,0005.22
2023-05-26 19:58:00,,0830.4,5.00,0.00,29.5,28.2,00.0,37.8,31.2,28.5,0001.8,0005.74,0011.02,0005.16
2023-05-26 19:59:00,,0830.5,4.99,0.00,29.5,28.2,00.0,37.8,31.3,28.4,0001.7,0005.72,0011.10,0005.13
